User: anonymous   Login
Location: Newark
(34.1333°N, 7.9667°W)
Time: 02:08:34
(UTC+00:00)
Language:

Transit 2A - Orbit

View from above orbital plane
View from above orbital plane
View from above satellite
View from above satellite

Ground track
Ground track

The orbit data is extracted from the following two-line orbital elements,

1 00045U 60007A   21337.51983794  .00000026  00000-0  33153-4 0  9991
2 00045  66.6958  53.4348 0262312 286.4086  70.8329 14.33753770142396
Epoch (UTC): 03 December 2021 12:28:33
Eccentricity: 0.0262312
inclination: 66.6958°
perigee height: 591 km
apogee height: 967 km
right ascension of ascending node: 53.4348°
argument of perigee: 286.4086°
revolutions per day: 14.33753770
mean anomaly at epoch: 70.8329°
orbit number at epoch: 14239

The dashed part of the orbit path shows where the satellite is in the earth's shadow,  

DLR